This demonstration page uses our WeatherBlox Daily Observations layout. Learn more.

Left ArrowRight Arrow

Hourly Observations for August 17, 2017

Temp ( °F °C ) Dew Point ( °F °C ) Humidity (%) Winds ( mph kmh ) Pressure ( in mb ) Visibility ( mi km ) Precip ( " mm )
12:52 am 00:52 Mostly Clear with Light Rain 68 20 67 19.4 96 96 SSE 10 17 29.85 1011 10 16 0.02 0.51
1:52 am 01:52 Partly Cloudy 67 19.4 67 19.4 100 100 SSW 10 17 29.87 1012 10 16 0.00 0.03
2:52 am 02:52 Clear with Light Rain 67 19.4 67 19.4 100 100 SSW 8 13 29.86 1011 10 16 0.01 0.25
3:52 am 03:52 Clear 67 19.4 67 19.4 100 100 Calm 29.88 1012 10 16 0.00 0.03
4:52 am 04:52 Partly Cloudy 67 19.4 67 19.4 100 100 S 6 9 29.89 1012 10 16 0.00 0.00
5:32 am 05:32 Mostly Cloudy 67 19.4 67 19.4 100 100 S 7 11 29.91 1013 10 16 0.00 0.00
5:40 am 05:40 Partly Cloudy 67 19.4 67 19.4 100 100 S 6 9 29.91 1013 10 16 0.00 0.00
5:52 am 05:52 Mostly Clear 67 19.4 67 19.4 100 100 SSE 7 11 29.89 1012 10 16 0.00 0.00
6:26 am 06:26 Mostly Cloudy 67 19.4 67 19.4 100 100 SSW 3 6 29.91 1013 10 16 0.00 0.00
6:52 am 06:52 Cloudy 67 19.4 67 19.4 100 100 Calm 29.90 1013 10 16 0.00 0.00
7:07 am 07:07 Cloudy 67 19.4 67 19.4 100 100 undefined N/A 29.91 1013 10 16 0.00 0.00
7:52 am 07:52 Cloudy 69 20.6 68 20 96 96 SSW 8 13 29.93 1013 10 16 0.00 0.00
8:21 am 08:21 Cloudy 69 20.6 69 20.6 100 100 SSW 8 13 29.94 1014 10 16 0.00 0.00
8:52 am 08:52 Cloudy 70 21.1 69 20.6 97 97 SW 9 15 29.96 1015 10 16 0.00 0.00
9:52 am 09:52 Cloudy 72 22.2 70 21.1 94 94 WSW 9 15 29.96 1015 10 16 0.00 0.00
10:52 am 10:52 Cloudy 74 23.3 70 21.1 88 88 W 8 13 29.98 1015 10 16 0.00 0.00
11:17 am 11:17 Mostly Cloudy 76 24.4 71 21.7 85 85 W 8 13 29.94 1014 10 16 0.00 0.00
11:52 am 11:52 Partly Cloudy 77 25 70 21.1 79 79 W 7 11 29.96 1015 10 16 0.00 0.00
12:52 pm 12:52 Partly Cloudy 80 26.7 71 21.7 74 74 undefined N/A 29.96 1015 10 16 0.00 0.00
1:52 pm 13:52 Partly Cloudy 81 27.2 70 21.1 69 69 W 10 17 29.95 1014 10 16 0.00 0.00
2:52 pm 14:52 Partly Cloudy 82 27.8 70 21.1 67 67 W 15 24 29.95 1014 10 16 0.00 0.00
3:52 pm 15:52 Partly Cloudy 82 27.8 68 20 63 63 WNW 12 19 29.94 1014 10 16 0.00 0.00
4:52 pm 16:52 Mostly Sunny 83 28.3 68 20 61 61 WNW 10 17 29.93 1013 10 16 0.00 0.00
5:52 pm 17:52 Sunny 83 28.3 67 19.4 59 59 WNW 9 15 29.92 1013 10 16 0.00 0.00
6:52 pm 18:52 Sunny 81 27.2 66 18.9 61 61 NW 6 9 29.92 1013 10 16 0.00 0.00
7:52 pm 19:52 Sunny 76 24.4 64 17.8 67 67 WNW 6 9 29.93 1014 10 16 0.00 0.00
8:52 pm 20:52 Clear 74 23.3 64 17.8 71 71 W 6 9 29.95 1014 10 16 0.00 0.00
9:52 pm 21:52 Clear 69 20.6 63 17.2 81 81 W 3 6 29.97 1015 10 16 0.00 0.00
10:52 pm 22:52 Clear 65 18.3 63 17.2 93 93 Calm 29.97 1015 10 16 0.00 0.00
11:52 pm 23:52 Clear 66 18.9 63 17.2 90 90 Calm 29.97 1015 10 16 0.00 0.00

Powered by AerisWeather